Horseshoe Bay, TX

5:12 AM MDT on July 26, 2017 (GMT -0600)
Horseshoe Bay

Weather History for KDZB - November, 2013

Change the Weather History Date:

Saturday, November 16, 2013

  Actual Average (KBMQ) Record (KBMQ)
Temperature  
Mean Temperature 69 °F -  
Max Temperature 77 °F 65 °F 82 °F (2016)
Min Temperature 61 °F 46 °F 30 °F (1997)
Cooling Degree Days 4    
Growing Degree Days 19 (Base 50)    
Moisture  
Dew Point 62 °F    
Average Humidity 74    
Maximum Humidity 86    
Minimum Humidity 60    
Precipitation  
Precipitation 0.00 in - - ()
Sea Level Pressure  
Sea Level Pressure 29.81 in    
Wind  
Wind Speed 6 mph (South)    
Max Wind Speed 15 mph    
Max Gust Speed 24 mph    
Visibility 10 miles    
Events      
Averages and records for this station are not official NWS values.
T = Trace of Precipitation, MM = Missing Value Source: NWS Daily Summary

Daily Weather History Graph

Daily Weather History Graph

Search for Another Location

Airport or City:

Trip Planner

Search our weather history database for the weather conditions in past years. The results will help you decide how hot, cold, wet, or windy it might be!

Date:

Astronomy

Nov. 16, 2013 Rise Set
Actual Time 6:00 AM MST 4:35 PM MST
Civil Twilight 5:34 AM MST 5:01 PM MST
Nautical Twilight 5:05 AM MST 5:30 PM MST
Astronomical Twilight 4:37 AM MST 5:59 PM MST
Moon 4:09 PM MST (11/16) 5:01 AM MST (11/16)
Length of Visible Light 11h 26m
Length of Day
10h 35m
Waxing Gibbous, 99% of the Moon is Illuminated
Nov 16
Waxing Gibbous
Nov 17
Full
Nov 25
Last Quarter
Dec 2
New
Dec 9
First Quarter

Hourly Weather History & Observations

Time (MST) Temp. Dew Point Humidity Pressure Visibility Wind Dir Wind Speed Gust Speed Precip Events Conditions
12:15 AM 62.2 °F 56.3 °F 81% 29.88 in 10.0 mi SSE 4.6 mph - N/A   Clear
12:35 AM 62.6 °F 56.8 °F 81% 29.87 in 10.0 mi SSE 6.9 mph - N/A   Clear
12:55 AM 61.9 °F 57.0 °F 84% 29.87 in 10.0 mi South 3.5 mph - N/A   Scattered Clouds
1:15 AM 62.2 °F 57.9 °F 86% 29.86 in 10.0 mi Calm Calm - N/A   Mostly Cloudy
1:35 AM 62.6 °F 58.3 °F 86% 29.86 in 10.0 mi Calm Calm - N/A   Overcast
1:55 AM 63.5 °F 58.3 °F 83% 29.86 in 10.0 mi Calm Calm - N/A   Overcast
2:15 AM 63.9 °F 58.3 °F 82% 29.85 in 10.0 mi Calm Calm - N/A   Overcast
2:35 AM 64.6 °F 59.0 °F 82% 29.86 in 10.0 mi South 5.8 mph - N/A   Overcast
2:55 AM 65.3 °F 59.0 °F 80% 29.86 in 10.0 mi South 5.8 mph - N/A   Overcast
3:15 AM 65.3 °F 58.5 °F 78% 29.85 in 10.0 mi SSW 3.5 mph - N/A   Overcast
3:35 AM 65.3 °F 58.1 °F 77% 29.85 in 10.0 mi South 5.8 mph - N/A   Overcast
3:55 AM 65.3 °F 57.7 °F 76% 29.85 in 10.0 mi South 5.8 mph - N/A   Overcast
4:15 AM 65.1 °F 57.7 °F 77% 29.85 in 10.0 mi South 6.9 mph - N/A   Overcast
4:35 AM 65.3 °F 57.7 °F 76% 29.85 in 10.0 mi South 8.1 mph 20.7 mph N/A   Overcast
4:55 AM 64.9 °F 57.9 °F 78% 29.85 in 10.0 mi South 8.1 mph - N/A   Overcast
5:15 AM 64.6 °F 58.3 °F 80% 29.85 in 10.0 mi South 8.1 mph - N/A   Mostly Cloudy
5:35 AM 64.9 °F 59.0 °F 81% 29.85 in 10.0 mi SSE 6.9 mph - N/A   Overcast
5:55 AM 65.3 °F 59.2 °F 81% 29.85 in 10.0 mi South 9.2 mph - N/A   Overcast
6:15 AM 65.5 °F 59.2 °F 80% 29.86 in 10.0 mi South 8.1 mph - N/A   Overcast
6:35 AM 65.8 °F 59.2 °F 79% 29.87 in 10.0 mi South 10.4 mph 16.1 mph N/A   Overcast
6:55 AM 66.4 °F 59.4 °F 78% 29.87 in 10.0 mi South 6.9 mph - N/A   Overcast
7:15 AM 66.6 °F 59.5 °F 78% 29.87 in 10.0 mi South 12.7 mph 18.4 mph N/A   Overcast
7:35 AM 67.1 °F 59.9 °F 78% 29.88 in 10.0 mi South 10.4 mph 16.1 mph N/A   Overcast
7:55 AM 67.3 °F 59.9 °F 77% 29.88 in 10.0 mi South 5.8 mph - N/A   Overcast
8:15 AM 68.0 °F 59.9 °F 75% 29.88 in 10.0 mi South 9.2 mph - N/A   Overcast
8:35 AM 68.2 °F 59.9 °F 75% 29.88 in 10.0 mi SSW 5.8 mph 17.3 mph N/A   Overcast
8:55 AM 68.5 °F 60.1 °F 74% 29.88 in 10.0 mi South 4.6 mph - N/A   Overcast
9:15 AM 69.1 °F 60.3 °F 73% 29.88 in 10.0 mi Calm Calm - N/A   Overcast
9:35 AM 70.2 °F 60.8 °F 72% 29.88 in 10.0 mi South 5.8 mph - N/A   Overcast
9:55 AM 71.6 °F 61.0 °F 69% 29.88 in 10.0 mi WSW 3.5 mph - N/A   Mostly Cloudy
10:15 AM 72.9 °F 61.0 °F 66% 29.86 in 10.0 mi South 6.9 mph - N/A   Scattered Clouds
10:35 AM 73.6 °F 60.6 °F 64% 29.85 in 10.0 mi South 5.8 mph - N/A   Clear
10:55 AM 74.3 °F 61.0 °F 63% 29.84 in 10.0 mi South 4.6 mph - N/A   Mostly Cloudy
11:15 AM 75.0 °F 61.9 °F 64% 29.83 in 10.0 mi SW 6.9 mph - N/A   Overcast
11:35 AM 75.2 °F 61.9 °F 63% 29.81 in 10.0 mi SSW 6.9 mph 19.6 mph N/A   Overcast
11:55 AM 77.0 °F 62.2 °F 60% 29.79 in 10.0 mi SSW 5.8 mph 16.1 mph N/A   Overcast
12:15 PM 77.4 °F 62.4 °F 60% 29.79 in 10.0 mi SSW 9.2 mph - N/A   Overcast
12:35 PM 77.0 °F 62.1 °F 60% 29.79 in 10.0 mi South 8.1 mph 17.3 mph N/A   Overcast
12:55 PM 77.0 °F 62.1 °F 60% 29.78 in 10.0 mi South 12.7 mph 21.9 mph N/A   Overcast
1:15 PM 77.0 °F 62.1 °F 60% 29.76 in 10.0 mi South 13.8 mph 24.2 mph N/A   Scattered Clouds
1:35 PM 76.6 °F 62.1 °F 61% 29.77 in 10.0 mi South 8.1 mph 19.6 mph N/A   Scattered Clouds
1:55 PM 76.3 °F 62.1 °F 61% 29.76 in 10.0 mi SSW 10.4 mph 20.7 mph N/A   Scattered Clouds
2:15 PM 76.3 °F 62.2 °F 62% 29.76 in 10.0 mi South 9.2 mph 18.4 mph N/A   Clear
2:35 PM 76.3 °F 62.6 °F 62% 29.75 in 10.0 mi South 9.2 mph - N/A   Clear
2:55 PM 76.3 °F 62.6 °F 62% 29.75 in 10.0 mi South 6.9 mph - N/A   Clear
3:15 PM 76.1 °F 62.6 °F 63% 29.74 in 10.0 mi South 8.1 mph 17.3 mph N/A   Clear
3:35 PM 76.1 °F 62.8 °F 63% 29.74 in 10.0 mi South 8.1 mph 16.1 mph N/A   Clear
3:55 PM 75.6 °F 63.1 °F 65% 29.74 in 10.0 mi South 10.4 mph - N/A   Clear
4:15 PM 75.2 °F 63.5 °F 67% 29.75 in 10.0 mi South 5.8 mph - N/A   Clear
4:35 PM 74.7 °F 63.7 °F 69% 29.75 in 10.0 mi South 5.8 mph - N/A   Clear
4:55 PM 74.3 °F 63.9 °F 70% 29.75 in 10.0 mi South 5.8 mph - N/A   Clear
5:15 PM 74.3 °F 64.0 °F 70% 29.75 in 10.0 mi South 8.1 mph - N/A   Clear
5:35 PM 74.3 °F 64.4 °F 71% 29.75 in 10.0 mi South 10.4 mph 16.1 mph N/A   Clear
5:55 PM 74.5 °F 64.4 °F 71% 29.75 in 10.0 mi South 10.4 mph 17.3 mph N/A   Clear
6:15 PM 74.3 °F 64.4 °F 71% 29.75 in 10.0 mi South 11.5 mph 17.3 mph N/A   Clear
6:35 PM 74.3 °F 64.6 °F 72% 29.75 in 10.0 mi South 13.8 mph 21.9 mph N/A   Clear
6:55 PM 74.3 °F 64.8 °F 72% 29.76 in 10.0 mi South 13.8 mph 23.0 mph N/A   Clear
7:15 PM 73.8 °F 64.8 °F 73% 29.76 in 10.0 mi South 11.5 mph 21.9 mph N/A   Clear
7:35 PM 73.6 °F 64.9 °F 74% 29.76 in 10.0 mi South 11.5 mph 23.0 mph N/A   Clear
7:55 PM 73.4 °F 65.3 °F 76% 29.76 in 10.0 mi South 9.2 mph 19.6 mph N/A   Clear
8:15 PM 73.0 °F 65.5 °F 77% 29.78 in 10.0 mi South 11.5 mph 19.6 mph N/A   Clear
8:35 PM 73.0 °F 65.7 °F 78% 29.78 in 10.0 mi South 12.7 mph 21.9 mph N/A   Clear
8:55 PM 72.9 °F 65.5 °F 78% 29.78 in 10.0 mi South 15.0 mph 23.0 mph N/A   Clear
9:15 PM 72.5 °F 65.5 °F 79% 29.78 in 10.0 mi South 11.5 mph 24.2 mph N/A   Clear
9:35 PM 72.5 °F 65.7 °F 79% 29.78 in 10.0 mi South 11.5 mph 18.4 mph N/A   Clear
9:55 PM 72.1 °F 65.8 °F 80% 29.78 in 10.0 mi South 9.2 mph 18.4 mph N/A   Clear
10:15 PM 71.8 °F 66.2 °F 83% 29.77 in 10.0 mi South 10.4 mph 18.4 mph N/A   Clear
10:35 PM 71.6 °F 66.4 °F 84% 29.78 in 10.0 mi South 10.4 mph 18.4 mph N/A   Clear
10:55 PM 71.6 °F 66.7 °F 85% 29.77 in 10.0 mi South 9.2 mph - N/A   Clear
11:15 PM 71.8 °F 66.9 °F 85% 29.76 in 10.0 mi SSW 10.4 mph 16.1 mph N/A   Clear
11:35 PM 72.1 °F 67.1 °F 84% 29.77 in 10.0 mi South 3.5 mph 19.6 mph N/A   Scattered Clouds
11:55 PM 71.8 °F 66.6 °F 84% 29.77 in 10.0 mi Calm Calm - N/A   Scattered Clouds